Regional Weather Roundup
Issued by NWS San Angelo, TX

Home | Current Version | Previous Version | Text Only | Print | Product List | Glossary On
Versions: 1 2 3 4 5 6 7 8 9 10 11 12 13 14 15 16 17 18 19 20 21 22 23 24 25 26 27 28 29 30 31 32 33 34 35 36 37 38 39 40 41 42 43 44 45 46 47 48 49 50
000
ASUS44 KSJT 052211
RWRSJT
WEST CENTRAL TEXAS REGIONAL WEATHER ROUNDUP
NATIONAL WEATHER SERVICE SAN ANGELO TX
500 PM CDT THU MAY 05 2016

NOTE: "FAIR" INDICATES FEW OR NO CLOUDS BELOW 12,000 FEET WITH NO
SIGNIFICANT WEATHER AND/OR OBSTRUCTIONS TO VISIBILITY.

TXZ049-054-064>066-071>073-076>078-098-099-113-114-127-128-139-140-
154-155-168>170-052300
...LOCATIONS ACROSS WEST CENTRAL TEXAS...

CITY           SKY/WX    TMP DP  RH WIND       PRES   REMARKS
SAN ANGELO     CLOUDY    86  41  20 CALM      30.01F
ABILENE        SUNNY     83  47  28 E8        30.03F
DYESS AFB      SUNNY     84  50  31 E5        30.01F
JUNCTION       MOSUNNY   85  40  20 VRB7      30.02F
SWEETWATER     SUNNY     84  45  25 SE12      30.05F
BROWNWOOD      SUNNY     82  48  30 N7        30.02F
COLEMAN        CLEAR     84  46  26 E7        30.03F
SONORA         MOSUNNY   84  37  18 NE7       30.07F
OZONA          FAIR      86  32  14 SE9       30.05F
BRADY          NOT AVBL
$$

TEXAS PANHANDLE/OKLAHOMA PANHANDLE

CITY           SKY/WX    TMP DP  RH WIND       PRES   REMARKS
AMARILLO       SUNNY     84  34  16 S7        30.03F
BORGER         SUNNY     87  35  15 SE9       30.00F
CANADIAN       SUNNY     84  43  23 S8        30.01F
DALHART        SUNNY     85  32  15 S15       30.03F
DUMAS          CLEAR     85  37  17 S10       30.02F
GUYMON         NOT AVBL
HEREFORD       CLEAR     86  30  13 S9        30.05F
PAMPA          CLEAR     84  44  24 S15       30.04F
PERRYTON       SUNNY     85  45  24 SE13G26   30.02F
$$

SOUTHERN PANHANDLE/SOUTH PLAINS/ROLLING PLAINS

CITY           SKY/WX    TMP DP  RH WIND       PRES   REMARKS
LUBBOCK        MOSUNNY   87  27  11 W6        30.04F
SNYDER           N/A     85  38  19 S8        30.04F
CHILDRESS      SUNNY     86  44  23 SE13G21   30.00F
SEMINOLE       CLEAR     86  26  11 SE12G18   30.05F
$$

PERMIAN BASIN

CITY           SKY/WX    TMP DP  RH WIND       PRES   REMARKS
MIDLAND        PTSUNNY   87  31  13 SE12G22   30.04F
ODESSA         CLOUDY    87  28  12 SE13G22   30.05F
WINK           CLOUDY    88  26  10 SE10G21   30.00F
$$

FAR WEST/SOUTHWEST MOUNTAINS/TRANS PECOS

CITY           SKY/WX    TMP DP  RH WIND       PRES   REMARKS
ALPINE         MOCLDY    83  23  11 E8G16     30.16F
DRYDEN           N/A     90  27  10 SE13G25   30.00F
EL PASO        MOSUNNY   89  29  11 SE21      29.97F
FORT STOCKTON  CLOUDY    85  26  11 S13G21    30.04F
GUADALUPE PASS SUNNY     77  18  11 E14       30.14F
MARFA          SUNNY     81  27  14 SE10      30.13F
PECOS          CLOUDY    89  25  10 E14G20    29.99F
$$

DALLAS/FORT WORTH METROPLEX

CITY           SKY/WX    TMP DP  RH WIND       PRES   REMARKS
DFW AIRPORT    MOSUNNY   83  45  26 N7        30.00F
FTW MEACHAM    SUNNY     84  47  27 N9        30.00F
DAL-EXECUTIVE  SUNNY     83  39  21 N9        30.00F
GRAND PRAIRIE  SUNNY     81  41  24 N8        30.02F
ADDISON        SUNNY     81  46  30 NW9G17    30.02F
MESQUITE       CLEAR     79  45  29 N6        30.01F
LANCASTER      CLEAR     83  37  19 N10       30.01F
$$

NORTH CENTRAL TEXAS

CITY           SKY/WX    TMP DP  RH WIND       PRES   REMARKS
SHRMAN/DENISON CLEAR     76  42  29 N5        30.03F
GAINESVILLE    SUNNY     78  47  33 CALM      30.04F
BRIDGEPORT     CLEAR     82  47  29 CALM      30.03F
DENTON         SUNNY     80  47  31 NE8       30.01F
WAXAHACHIE     CLEAR     81  46  29 N9        30.02F
GRANBURY       CLEAR     83  48  29 NE3       30.02F
$$

WESTERN NORTH TEXAS

CITY           SKY/WX    TMP DP  RH WIND       PRES   REMARKS
WICHITA FALLS  SUNNY     81  45  28 VRB3      30.02F
VERNON         CLEAR     84  38  19 SE8       30.02F
BRECKENRIDGE   CLEAR     85  47  26 SE6       30.01F HAZE
COMANCHE       SUNNY     82  54  39 E6        30.03F
$$

CENTRAL AND SOUTH CENTRAL TEXAS

CITY           SKY/WX    TMP DP  RH WIND       PRES   REMARKS
AUSTIN/BERGSTM PTSUNNY   85  53  33 E8        29.98F
WACO           SUNNY     83  50  31 N9        29.99F
HILLSBORO      CLEAR     80  47  31 NW9       30.01F
TEMPLE         SUNNY     82  54  37 NW8       30.00F
KILLEEN-GRAY   SUNNY     82  52  34 VRB1      29.99F
FORT HOOD      SUNNY     82  53  36 VRB7      29.98F
GEORGETOWN     SUNNY     86  52  30 N9        29.99F
LAGO VISTA     FAIR      86  48  26 N7        30.02F
SAN MARCOS     SUNNY     84  54  34 VRB6      29.99F
NEW BRAUNFELS  MOSUNNY   88  51  28 VRB6      29.97F
RANDOLPH AFB   MOSUNNY   85  54  34 E7        29.99F
SAN ANTONIO    PTSUNNY   85  51  31 W7        29.99F
STINSON        MOSUNNY   89  48  24 E8        29.96F
PLEASANTON     NOT AVBL
LA GRANGE        N/A     85  57  37 N5        29.96F
GIDDINGS       CLEAR     83  51  32 N3        30.02F
$$

EAST TEXAS

CITY           SKY/WX    TMP DP  RH WIND       PRES   REMARKS
PARIS          SUNNY     79  46  31 N12       30.00F
CLARKSVILLE    NOT AVBL
TYLER          SUNNY     80  42  25 N14G20    29.99F
LONGVIEW       SUNNY     78  46  32 NW10      29.97F
PALESTINE      CLEAR     80  46  30 NW8       30.00F
NACOGDOCHES    SUNNY     79  45  29 N10G18    29.97F
$$

TEXAS HILL COUNTRY AND EDWARDS PLATEAU

CITY           SKY/WX    TMP DP  RH WIND       PRES   REMARKS
LLANO          CLOUDY    88  46  23 NE5       30.03F
HORSESHOE BAY  FAIR      86  49  27 NE5       30.01F
KERRVILLE      MOSUNNY   83  50  32 E6        30.03F
FREDERICKSBRG  PTSUNNY   82  45  27 SE5       30.04S
ROCKSPRINGS    CLEAR     84  43  23 E5        30.06F
HONDO          SUNNY     87  48  25 SE9       30.01F
UVALDE         CLEAR     88  43  20 E6        29.99F
DEL RIO        SUNNY     89  34  14 E7        29.97F
$$

SOUTHEAST TEXAS

CITY           SKY/WX    TMP DP  RH WIND       PRES   REMARKS
COLLEGE STN    SUNNY     83  51  33 NW7       29.98F
CALDWELL       CLEAR     81  48  32 N7        30.01F
CROCKETT       PTCLDY    79  46  31 N6        30.01S
BRENHAM        SUNNY     85  50  29 N13       29.99S
HUNTSVILLE     SUNNY     82  47  29 VRB6      29.98F
CONROE         SUNNY     82  44  26 NW8       29.97F
HOUSTON BUSH   MOSUNNY   83  45  26 NW10      29.95F
HOUSTON HOBBY  MOSUNNY   86  44  23 N12       29.94F
PERLAND        SUNNY     88  44  21 N10       29.95F
WHARTON        CLEAR     85  53  32 N12       29.96F
$$

THE UPPER TEXAS COAST

CITY           SKY/WX    TMP DP  RH WIND       PRES   REMARKS
ORANGE         CLEAR     81  40  23 NW6       29.95S
PORT ARTHUR    SUNNY     83  49  30 N9        29.92F
GALVESTON      SUNNY     82  55  39 N9        29.94F
ANGLETON       SUNNY     87  52  29 N10       29.94F
BAY CITY       CLEAR     87  54  32 N10       29.95S
$$

TEXAS COASTAL BEND, RIO GRANDE PLAINS DEEP SOUTH TEXAS

CITY           SKY/WX    TMP DP  RH WIND       PRES   REMARKS
VICTORIA       MOSUNNY   89  52  28 NE7       29.96F
BEEVILLE       FAIR      91  46  20 CALM      29.95F
ROCKPORT       SUNNY     88  50  27 SE9       29.95F
PORT ARANSAS   CLEAR     83  62  49 S7        29.96F
PORT LAVACA    MOCLDY    87  57  36 NW7       29.96F
CORPUS CHRISTI MOSUNNY   91  45  20 CALM      29.95F
KINGSVILLE NAS PTSUNNY   93  52  24 NE3       29.94F
COTULLA        SUNNY     94  33  11 VRB6      29.94F
LAREDO         SUNNY     93  44  18 NW7       29.94F
BROWNSVILLE    SUNNY     87  56  34 E12       29.96F
PORT ISABEL    SUNNY     86  56  35 SE14      29.95F
HEBBRONVILLE   CLEAR     94  39  14 CALM      29.94F
MCALLEN        SUNNY     94  48  20 S8G18     29.93F
WESLACO        SUNNY     94  44  18 S5        29.92F HAZE
FALFURRIAS     CLEAR     95  37  13 NE5       29.92F
EDINBURG       CLEAR     95  40  15 SE7       29.93F
$$




USA.gov is the U.S. government's official web portal to all federal, state and local government web resources and services.